IRIDIUM 920 (24871 NORAD) Tracking and Keplerian Element Data

This shows tracking and keplerian element data for the satellite.

Feedback or suggestion? Click here.




ElementValue
Catalog24871
NameIRIDIUM 920
Epoch Orbit49336
Epoch Day354.10491345
Epoch Year2025
RAAN135.4485
Inclination86.3984
Eccentricity0.0011522
Argument of Perigee178.2334
Mean Anonmoly181.8909
Mean Motion14.41735536
Decay Rate3.86E-06
L11 24871U 97034C 25354.10491345 .00000386 00000+0 11223-3 0 9999
L22 24871 86.3984 135.4485 0011522 178.2334 181.8909 14.41735536493361



Live tracking and technical data element details for IRIDIUM 920 (NORAD 24871). IRIDIUM 920 can be tracked NOW for your location showing map with azimuth and elevation plus other details from your city location.







IsCatalogInMostPopularTable: catalog: 24871, numindb: 539
Update: records affected: 1



GetName: 24871 IRIDIUM 920

Hit Count: updated at: Sat, 14 Mar 2026 02:52:45 GMT